• Join FlightAware (Why Join?)
  • Login
  • US Flag 
06:06AM EDT


 

Airport Tracker/Info


-or-


 

Live Flight TrackerFlight Track Log ✈ CTA307 ✈ 25-Apr-2013 ✈ KVGT - KPHX

Flight Track Log - Related Links

Times and Time Zones

All times are in EDT time to prevent confusion due to time zone crossing. See the CTA307 flight status page for this flight to view local times or setup timezone preferences in your user account.

Time Position Orientation Groundspeed Altitude Reporting Facility
EDT Latitude Longitude Course Direction KTS MPH feet Rate Location/Type
11:01PM 36.2467 -115.1678 88° East 130 150 3,700  Level Los Angeles Center
11:03PM 36.2483 -115.1089 88° East 137 158 4,300 480 Climbing Los Angeles Center
11:04PM 36.2511 -115.0597 86° East 140 161 4,900 600 Climbing Los Angeles Center
11:05PM 36.2556 -115.0111 84° East 143 165 5,600 660 Climbing Los Angeles Center
11:06PM 36.2492 -114.9633 99° East 147 169 6,300 540 Climbing Los Angeles Center
11:07PM 36.2200 -114.9325 140° Southeast 141 162 6,800 540 Climbing Los Angeles Center
11:08PM 36.1856 -114.8975 141° Southeast 139 160 7,500 720 Climbing Los Angeles Center
11:09PM 36.1547 -114.8653 140° Southeast 146 168 8,300 600 Climbing Los Angeles Center
11:10PM 36.1233 -114.8303 138° Southeast 148 170 8,800 480 Climbing Los Angeles Center
11:11PM 36.0928 -114.8006 142° Southeast 155 178 9,300 360 Climbing Los Angeles Center
11:12PM 36.0583 -114.7617 138° Southeast 167 192 9,500 60 Climbing Los Angeles Center
11:13PM 36.0211 -114.7208 138° Southeast 184 212 9,500  Level Los Angeles Center
11:14PM 35.9808 -114.6758 138° Southeast 191 220 9,500  Level Los Angeles Center
11:15PM 35.9394 -114.6258 136° Southeast 193 222 9,500  Level Los Angeles Center
11:16PM 35.8903 -114.5697 137° Southeast 190 219 9,500  Level Los Angeles Center
11:17PM 35.8519 -114.5247 136° Southeast 189 217 9,500  Level Los Angeles Center
11:18PM 35.8117 -114.4800 138° Southeast 192 221 9,500  Level Los Angeles Center
11:19PM 35.7742 -114.4325 134° Southeast 193 222 9,500 -60 Level Los Angeles Center
11:20PM 35.7339 -114.3875 138° Southeast 194 223 9,400  Descending Los Angeles Center
11:21PM 35.6936 -114.3431 138° Southeast 194 223 9,500  Climbing Los Angeles Center
11:22PM 35.6542 -114.2972 137° Southeast 195 224 9,500  Level Los Angeles Center
11:23PM 35.6147 -114.2508 136° Southeast 195 224 9,500 -60 Level Los Angeles Center
11:24PM 35.5681 -114.1981 137° Southeast 197 227 9,400 -60 Descending Los Angeles Center
11:25PM 35.5275 -114.1519 137° Southeast 198 228 9,400  Level Los Angeles Center
11:26PM 35.4839 -114.1108 142° Southeast 198 228 9,500 60 Climbing Los Angeles Center
11:27PM 35.4408 -114.0594 136° Southeast 203 234 9,600  Climbing Los Angeles Center
11:28PM 35.3978 -114.0150 140° Southeast 202 232 9,600  Level Los Angeles Center
11:29PM 35.3550 -113.9719 141° Southeast 201 231 9,600  Level Los Angeles Center
11:30PM 35.3078 -113.9231 140° Southeast 200 230 9,600  Level Los Angeles Center
11:31PM 35.2658 -113.8800 140° Southeast 199 229 9,600  Level Los Angeles Center
11:32PM 35.2236 -113.8369 140° Southeast 199 229 9,600  Level Los Angeles Center
11:33PM 35.1825 -113.7914 138° Southeast 201 231 9,600  Level Los Angeles Center
11:35PM 35.1408 -113.7481 140° Southeast 199 229 9,600  Level Los Angeles Center
11:36PM 35.0900 -113.6950 139° Southeast 200 230 9,600 -60 Level Los Angeles Center
11:37PM 35.0475 -113.6525 141° Southeast 199 229 9,500 -60 Descending Los Angeles Center
11:38PM 35.0053 -113.6083 139° Southeast 201 231 9,500  Level Los Angeles Center
11:39PM 34.9636 -113.5650 140° Southeast 200 230 9,500  Level Los Angeles Center
11:40PM 34.9208 -113.5222 141° Southeast 200 230 9,500  Level Los Angeles Center
11:41PM 34.8786 -113.4781 139° Southeast 201 231 9,500  Level Los Angeles Center
11:42PM 34.8364 -113.4339 139° Southeast 200 230 9,500  Level Albuquerque Center
11:43PM 34.7942 -113.3908 140° Southeast 201 231 9,500  Level Albuquerque Center
11:44PM 34.7519 -113.3472 140° Southeast 201 231 9,600  Climbing Albuquerque Center
11:45PM 34.7103 -113.3042 140° Southeast 199 229 9,500 -60 Descending Albuquerque Center
11:46PM 34.6692 -113.2606 139° Southeast 198 228 9,500  Level Albuquerque Center
11:47PM 34.6164 -113.2125 143° Southeast 199 229 9,500  Level Albuquerque Center
11:48PM 34.5742 -113.1700 140° Southeast 199 229 9,500  Level Albuquerque Center
11:49PM 34.5339 -113.1261 138° Southeast 197 227 9,600  Climbing Albuquerque Center
11:50PM 34.4942 -113.0811 137° Southeast 196 226 9,600  Level Albuquerque Center
11:51PM 34.4558 -113.0369 136° Southeast 194 223 9,600 -60 Level Albuquerque Center
11:52PM 34.4192 -112.9964 138° Southeast 191 220 9,500 -60 Descending Albuquerque Center
11:53PM 34.3722 -112.9461 139° Southeast 189 217 9,500  Level Albuquerque Center
11:54PM 34.3369 -112.9056 136° Southeast 189 217 9,600  Climbing Albuquerque Center
11:55PM 34.2994 -112.8608 135° Southeast 190 219 9,500 -120 Descending Albuquerque Center
11:56PM 34.2628 -112.8189 137° Southeast 187 215 9,400  Descending Albuquerque Center
11:56PM 34.2442 -112.7978 137° Southeast 185 213 9,500 60 Climbing Albuquerque Center
11:57PM 34.2264 -112.7750 133° Southeast 185 213 9,500 60 Level Albuquerque Center
11:57PM 34.2064 -112.7508 135° Southeast 184 212 9,600 60 Climbing Albuquerque Center
11:58PM 34.1822 -112.7247 138° Southeast 183 211 9,600 -120 Level Albuquerque Center
11:58PM 34.1697 -112.7114 139° Southeast 184 212 9,500 -120 Descending Albuquerque Center
11:59PM 34.1469 -112.6792 130° Southeast 183 211 9,500  Level Albuquerque Center
11:59PM 34.1342 -112.6664 140° Southeast 185 213 9,500  Level Albuquerque Center
12:00AM 34.1097 -112.6356 134° Southeast 186 214 9,500  Level Albuquerque Center
12:00AM 34.0964 -112.6219 140° Southeast 187 215 9,500  Level Albuquerque Center
12:01AM 34.0733 -112.5914 132° Southeast 187 215 9,500 60 Level Albuquerque Center
12:01AM 34.0564 -112.5758 143° Southeast 189 217 9,600 60 Climbing Albuquerque Center
12:02AM 34.0319 -112.5503 139° Southeast 193 222 9,600  Level Albuquerque Center
12:03AM 33.9914 -112.5114 142° Southeast 190 219 9,700  Climbing Albuquerque Center
12:04AM 33.9531 -112.4711 139° Southeast 185 213 9,600 -60 Descending Albuquerque Center
12:05AM 33.9122 -112.4319 141° Southeast 188 216 9,600  Level Albuquerque Center
12:06AM 33.8711 -112.3944 143° Southeast 185 213 9,600 -600 Level Albuquerque Center
12:07AM 33.8183 -112.3481 144° Southeast 209 241 8,400 -1,080 Descending Albuquerque Center
12:08AM 33.7733 -112.3006 139° Southeast 216 249 7,500 -840 Descending Albuquerque Center
12:09AM 33.7344 -112.2450 130° Southeast 219 252 6,700 -780 Descending Albuquerque Center
12:10AM 33.6992 -112.1886 127° Southeast 214 246 6,000 -600 Descending Albuquerque Center
12:11AM 33.6669 -112.1322 124° Southeast 208 239 5,500 -300 Descending Albuquerque Center
12:12AM 33.6383 -112.0797 123° Southeast 192 221 5,500 -300 Level Albuquerque Center
12:13AM 33.6111 -112.0267 122° Southeast 189 217 5,000 -480 Descending Albuquerque Center
12:14AM 33.5842 -111.9722 121° Southeast 191 220 4,600 -300 Descending Albuquerque Center
12:15AM 33.5594 -111.9200 120° Southeast 183 211 4,500 -60 Descending Albuquerque Center
12:16AM 33.5356 -111.8728 121° Southeast 168 193 4,500 -120 Level Albuquerque Center
12:17AM 33.4858 -111.8556 164° South 164 189 4,300 -480 Descending Albuquerque Center
12:18AM 33.4417 -111.8633 188° South 160 184 3,600 -780 Descending Albuquerque Center
12:19AM 33.4283 -111.9081 250° West 150 173 2,800 -840 Descending Albuquerque Center
12:20AM 33.4294 -111.9503 272° West 129 148 2,000 -780 Descending Albuquerque Center
12:21AM 33.4283 -111.9919 268° West 119 137 1,300 -720 Descending Albuquerque Center